Home > Weather > Pulheim > Past weeks

Flag for Germany Past Weather in Pulheim, North Rhine-Westphalia, Germany — Yesterday and Last 2 Weeks

Now
63 °F

Light rain. Mostly cloudy.


Feels Like: 63 °F
Forecast: 60 / 72 °F
Wind: 2 mph from East

Location: Noervenich

Current Time: Jul 28, 2016 at 10:49:46 AM

Latest Report: Jul 28, 2016 at 9:20 AM


Visibility: 6 mi

Pressure: 30.01 "Hg

Humidity: 94%

Dew Point: 61 °F

Location of PulheimLocation

Past Weather in Pulheim — Graph

°F

Pulheim Temperature Yesterday

Maximum temperature yesterday: 75 °F (at 4:20 PM)
Minimum temperature yesterday: 57 °F (at 3:20 AM)
Average temperature yesterday: 67 °F

High & Low Weather Summary for the Past Weeks

 TemperatureHumidityPressure
High95 °F (Jul 20, 3:20 PM)100% (Jul 24, 3:20 AM)30.33 "Hg (Jul 24, 3:20 AM)
Low50 °F (Jul 14, 3:20 AM)26% (Jul 20, 3:20 PM)29.86 "Hg (Jul 20, 4:20 PM)
Average69 °F71%30.10 "Hg
* Reported Jul 13 9:20 AM — Jul 28 9:20 AM, Pulheim, Weather by CustomWeather, © 2016

Note: Actual official high and low records may vary slightly from our data, if they occured in-between our weather recording intervals... More about our weather records

Advertising

Pulheim Weather History for the Previous 24 Hours

Scroll right to see more
 ConditionsComfort  
Time TempWeatherWind HumidityBarometerVisibility
9:20 AM
Thu, Jul 28
63 °FLight rain. Mostly cloudy.2 mph94%30.01 "Hg6 mi
8:20 AM63 °FRain. Mostly cloudy.1 mph94%30.01 "Hg4 mi
7:20 AM64 °FLight rain. Partly sunny.3 mph83%30.01 "HgN/A
6:20 AM64 °FPassing clouds.6 mph78%30.01 "HgN/A
5:20 AM64 °FPassing clouds.3 mph78%30.01 "HgN/A
4:20 AM64 °FPassing clouds.3 mph78%30.01 "HgN/A
3:20 AM66 °FPassing clouds.3 mph73%30.04 "HgN/A
2:20 AM66 °FPassing clouds.3 mph73%30.04 "HgN/A
1:20 AM66 °FPassing clouds.5 mph73%30.04 "HgN/A
12:20 AM66 °FPassing clouds.6 mph73%30.04 "HgN/A
11:20 PM
Wed, Jul 27
68 °FPassing clouds.6 mph64%30.04 "HgN/A
10:20 PM68 °FPartly sunny.8 mph64%30.04 "HgN/A
9:20 PM70 °FPartly sunny.7 mph60%30.04 "HgN/A
8:20 PM72 °FPartly sunny.14 mph57%30.04 "HgN/A
7:20 PM73 °FBroken clouds.15 mph53%30.01 "HgN/A
6:20 PM73 °FPartly sunny.15 mph53%30.01 "HgN/A
5:20 PM73 °FPartly sunny.12 mph53%30.01 "HgN/A
4:20 PM75 °FScattered clouds.15 mph47%30.04 "HgN/A
3:20 PM73 °FBroken clouds.14 mph50%30.04 "HgN/A
2:20 PM73 °FPartly sunny.13 mph50%30.04 "HgN/A
1:20 PM73 °FBroken clouds.13 mph47%30.04 "HgN/A
12:20 PM72 °FScattered clouds.12 mph57%30.07 "HgN/A
11:20 AM70 °FScattered clouds.9 mph60%30.07 "HgN/A
10:20 AM66 °FScattered clouds.7 mph68%30.07 "HgN/A
Weather by CustomWeather, © 2016

See weather overviewHow to use our weather pages